Estació meteorològica de Bellmunt (Osona, Osona)

Consulta les dades en temps real de l'estació meteorològica de Bellmunt





Hora UTC 15:30
Temperatura 34.7 ºC
Humitat 29.0 %
Pressió 1016.1 hPa
Pluja 0.0 mm
Velocitat vent 11.3 km/h
Direcció vent S

Dades diàries 2026-09-05



Hora UTC (hivern +1h; estiu +2h)
Temperatura (ºC) Humitat (%) Pressió (hPa) Velocitat vent (km/h) Precipitació (mm)
Hora UTC Aire Humitat Pressió Vel. Dir. Vel. Max Dir. Intent. màx 5 min.
00:05 21.7 61.0 1016.3 0.0 WSW 0.0 0.0
00:10 21.6 61.0 1016.2 0.0 WSW 0.0 0.0
00:15 21.3 61.0 1016.2 0.0 WSW 0.0 0.0
00:20 21.3 62.0 1016.2 0.0 WSW 0.0 0.0
00:25 21.3 62.0 1016.2 0.0 NNE 0.0 0.0
00:30 21.3 62.0 1016.2 0.0 N 0.0 0.0
00:35 21.2 62.0 1016.2 0.0 N 0.0 0.0
00:40 21.2 62.0 1016.2 0.0 N 0.0 0.0
00:45 21.0 62.0 1016.2 0.0 N 0.0 0.0
00:50 20.8 63.0 1016.1 0.0 N 0.0 0.0
00:55 20.7 63.0 1016.1 0.0 N 0.0 0.0
01:00 20.5 63.0 1016.2 0.0 N 0.0 0.0
01:05 20.6 63.0 1016.1 0.0 N 0.0 0.0
01:10 20.5 64.0 1016.2 0.0 N 0.0 0.0
01:15 20.5 64.0 1016.2 0.0 NW 0.0 0.0
01:20 20.5 64.0 1016.2 0.0 NW 0.0 0.0
01:25 20.3 64.0 1016.2 0.0 NW 0.0 0.0
01:30 20.4 65.0 1016.2 0.0 N 0.0 0.0
01:35 20.3 64.0 1016.2 0.0 N 0.0 0.0
01:40 20.4 64.0 1016.1 0.0 NNE 0.0 0.0
01:45 20.5 64.0 1016.1 0.0 NNE 0.0 0.0
01:50 20.4 64.0 1016.1 0.0 NNE 0.0 0.0
01:55 20.5 64.0 1016.1 0.0 NE 0.0 0.0
02:00 20.4 64.0 1016.2 0.0 NE 0.0 0.0
02:05 20.3 64.0 1016.2 0.0 NE 0.0 0.0
02:10 20.3 64.0 1016.2 0.0 NE 0.0 0.0
02:15 20.4 64.0 1016.1 0.0 NNE 0.0 0.0
02:20 20.4 64.0 1016.1 0.0 N 0.0 0.0
02:25 20.2 64.0 1016.1 0.0 NNW 0.0 0.0
02:30 20.0 64.0 1016.1 0.0 NNW 0.0 0.0
02:35 19.9 65.0 1016.1 0.0 NNW 0.0 0.0
02:40 19.7 65.0 1016.1 0.0 ESE 0.0 0.0
02:45 19.6 65.0 1016.0 0.0 ESE 0.0 0.0
02:50 19.6 66.0 1016.1 0.0 ESE 0.0 0.0
02:55 19.7 66.0 1016.1 0.0 ESE 0.0 0.0
03:00 19.8 65.0 1016.2 0.0 NNE 0.0 0.0
03:05 20.1 65.0 1016.2 0.0 NNE 0.0 0.0
03:10 19.9 65.0 1016.2 0.0 NNE 0.0 0.0
03:15 19.9 65.0 1016.1 0.0 NNE 0.0 0.0
03:20 19.9 65.0 1016.2 0.0 NNE 0.0 0.0
03:25 19.9 65.0 1016.2 0.0 NNE 0.0 0.0
03:30 20.0 65.0 1016.2 0.0 NNE 0.0 0.0
03:35 19.9 65.0 1016.1 0.0 N 0.0 0.0
03:40 19.7 65.0 1016.1 0.0 N 0.0 0.0
03:45 19.6 65.0 1016.1 0.0 N 0.0 0.0
03:50 19.4 66.0 1016.1 0.0 NNE 0.0 0.0
03:55 19.4 66.0 1016.1 0.0 NNE 0.0 0.0
04:00 19.4 66.0 1016.1 0.0 NNE 0.0 0.0
04:05 19.3 66.0 1016.1 0.0 NNE 0.0 0.0
04:10 19.4 66.0 1016.1 6.4 NNE 6.4 0.0
04:15 19.6 66.0 1016.0 6.4 NNE 6.4 0.0
04:20 19.7 65.0 1016.1 3.2 NE 6.4 0.0
04:25 19.7 65.0 1016.1 0.0 NE 6.4 0.0
04:30 19.5 65.0 1016.1 0.0 NE 1.6 0.0
04:35 19.4 66.0 1016.1 0.0 NE 0.0 0.0
04:40 19.3 66.0 1016.1 0.0 NE 0.0 0.0
04:45 19.2 66.0 1016.2 0.0 W 0.0 0.0
04:50 18.8 67.0 1016.2 0.0 W 0.0 0.0
04:55 18.6 67.0 1016.2 0.0 W 0.0 0.0
05:00 18.6 68.0 1016.3 0.0 W 0.0 0.0
05:05 18.9 68.0 1016.3 0.0 W 0.0 0.0
05:10 19.0 68.0 1016.4 0.0 W 0.0 0.0
05:15 18.8 68.0 1016.3 3.2 W 4.8 0.0
05:20 18.6 67.0 1016.3 1.6 W 4.8 0.0
05:25 18.5 68.0 1016.3 0.0 W 4.8 0.0
05:30 18.4 68.0 1016.3 0.0 W 0.0 0.0
05:35 18.4 68.0 1016.4 0.0 W 0.0 0.0
05:40 18.3 68.0 1016.4 0.0 W 0.0 0.0
05:45 18.2 68.0 1016.4 0.0 W 0.0 0.0
05:50 18.3 69.0 1016.4 0.0 W 0.0 0.0
05:55 18.6 69.0 1016.4 0.0 W 0.0 0.0
06:00 18.7 68.0 1016.5 0.0 W 0.0 0.0
06:05 18.9 68.0 1016.5 0.0 W 0.0 0.0
06:10 18.9 67.0 1016.4 0.0 W 0.0 0.0
06:15 18.9 67.0 1016.5 0.0 W 0.0 0.0
06:20 18.8 67.0 1016.5 0.0 W 0.0 0.0
06:25 18.9 67.0 1016.6 0.0 W 0.0 0.0
06:30 19.2 67.0 1016.6 0.0 W 0.0 0.0
06:35 19.4 67.0 1016.7 0.0 W 0.0 0.0
06:40 19.8 67.0 1016.7 0.0 W 0.0 0.0
06:45 20.1 66.0 1016.7 0.0 W 0.0 0.0
06:50 20.6 65.0 1016.8 0.0 W 0.0 0.0
06:55 20.9 64.0 1016.7 0.0 W 0.0 0.0
07:00 21.1 63.0 1016.8 0.0 W 0.0 0.0
07:05 21.3 62.0 1016.8 0.0 W 0.0 0.0
07:10 21.7 63.0 1016.8 0.0 W 0.0 0.0
07:15 22.1 62.0 1016.8 0.0 W 0.0 0.0
07:20 22.6 60.0 1016.9 0.0 W 0.0 0.0
07:25 22.7 59.0 1016.9 0.0 W 0.0 0.0
07:30 22.8 59.0 1016.9 0.0 W 0.0 0.0
07:35 23.0 59.0 1016.9 1.6 W 3.2 0.0
07:40 23.3 58.0 1017.0 0.0 W 3.2 0.0
07:45 23.5 58.0 1017.0 0.0 W 3.2 0.0
07:50 23.6 58.0 1017.0 1.6 W 3.2 0.0
07:55 23.9 58.0 1017.0 3.2 W 3.2 0.0
08:00 24.1 57.0 1017.1 0.0 W 3.2 0.0
08:05 24.4 56.0 1017.1 0.0 W 0.0 0.0
08:10 24.9 56.0 1017.1 0.0 W 0.0 0.0
08:15 25.3 55.0 1017.0 0.0 W 0.0 0.0
08:20 25.7 54.0 1017.1 3.2 W 4.8 0.0
08:25 26.1 53.0 1017.0 0.0 W 4.8 0.0
08:30 26.4 53.0 1017.1 3.2 W 4.8 0.0
08:35 26.4 53.0 1017.1 1.6 W 4.8 0.0
08:40 26.7 54.0 1017.2 3.2 W 4.8 0.0
08:45 27.1 53.0 1017.2 0.0 W 6.4 0.0
08:50 27.5 51.0 1017.2 3.2 W 4.8 0.0
08:55 27.8 52.0 1017.2 4.8 W 6.4 0.0
09:00 27.6 52.0 1017.3 3.2 W 6.4 0.0
09:05 28.0 51.0 1017.4 3.2 W 4.8 0.0
09:10 28.3 50.0 1017.4 1.6 W 4.8 0.0
09:15 28.8 49.0 1017.5 1.6 W 6.4 0.0
09:20 29.2 50.0 1017.5 0.0 W 6.4 0.0
09:25 29.6 47.0 1017.5 1.6 W 3.2 0.0
09:30 30.1 48.0 1017.4 1.6 W 4.8 0.0
09:35 30.3 48.0 1017.4 0.0 W 4.8 0.0
09:40 30.3 46.0 1017.4 1.6 W 4.8 0.0
09:45 30.6 45.0 1017.3 3.2 W 4.8 0.0
09:50 31.0 43.0 1017.3 1.6 W 6.4 0.0
09:55 31.4 43.0 1017.2 1.6 W 6.4 0.0
10:00 31.9 44.0 1017.1 3.2 W 6.4 0.0
10:05 32.1 41.0 1017.3 6.4 W 6.4 0.0
10:10 32.2 42.0 1017.2 9.7 W 11.3 0.0
10:15 32.6 41.0 1017.2 4.8 W 11.3 0.0
10:20 32.8 37.0 1017.2 4.8 SW 11.3 0.0
10:25 33.0 39.0 1017.3 0.0 SSW 11.3 0.0
10:30 33.4 37.0 1017.2 6.4 SE 14.5 0.0
10:35 33.2 36.0 1017.2 1.6 SSW 11.3 0.0
10:40 33.5 35.0 1017.1 4.8 SE 11.3 0.0
10:45 33.9 34.0 1017.1 11.3 SE 11.3 0.0
10:50 33.7 35.0 1017.1 14.5 SSE 14.5 0.0
10:55 33.9 35.0 1017.0 6.4 SSW 12.9 0.0
11:00 34.2 33.0 1017.1 3.2 ESE 8.0 0.0
11:05 34.4 36.0 1017.0 9.7 SE 11.3 0.0
11:10 34.3 32.0 1017.0 9.7 ESE 12.9 0.0
11:15 34.2 34.0 1016.9 6.4 WSW 12.9 0.0
11:20 34.4 35.0 1016.9 0.0 W 8.0 0.0
11:25 34.7 32.0 1016.8 11.3 SE 16.1 0.0
11:30 34.7 32.0 1016.9 0.0 WSW 16.1 0.0
11:35 34.9 35.0 1017.0 0.0 WSW 8.0 0.0
11:40 34.9 31.0 1017.0 11.3 SSE 14.5 0.0
11:45 34.8 31.0 1016.9 1.6 ESE 14.5 0.0
11:50 35.1 31.0 1016.9 1.6 NW 14.5 0.0
11:55 35.4 32.0 1016.8 6.4 S 8.0 0.0
12:00 35.6 29.0 1016.7 3.2 W 14.5 0.0
12:05 35.7 33.0 1016.8 3.2 W 9.7 0.0
12:10 35.9 30.0 1016.7 4.8 ENE 9.7 0.0
12:15 35.9 29.0 1016.7 6.4 WSW 19.3 0.0
12:20 36.1 28.0 1016.7 12.9 SSE 19.3 0.0
12:25 36.1 28.0 1016.6 9.7 W 14.5 0.0
12:30 36.2 27.0 1016.5 8.0 SE 12.9 0.0
12:35 36.3 26.0 1016.5 8.0 SE 24.1 0.0
12:40 36.7 26.0 1016.6 8.0 SW 24.1 0.0
12:45 36.7 28.0 1016.6 12.9 WSW 22.5 0.0
12:50 36.8 26.0 1016.5 9.7 WSW 22.5 0.0
12:55 37.0 26.0 1016.4 11.3 SW 20.9 0.0
13:00 36.7 28.0 1016.5 9.7 W 20.9 0.0
13:05 36.9 27.0 1016.6 17.7 WSW 22.5 0.0
13:10 36.4 26.0 1016.5 8.0 SSE 22.5 0.0
13:15 36.4 27.0 1016.5 8.0 S 22.5 0.0
13:20 36.1 27.0 1016.4 12.9 SSE 27.4 0.0
13:25 36.0 27.0 1016.4 14.5 S 27.4 0.0
13:30 36.2 28.0 1016.3 20.9 SSE 27.4 0.0
13:35 36.2 27.0 1016.3 6.4 SW 24.1 0.0
13:40 36.0 27.0 1016.3 16.1 SSE 24.1 0.0
13:45 36.1 28.0 1016.2 8.0 SW 24.1 0.0
13:50 35.9 28.0 1016.1 6.4 SSE 24.1 0.0
13:55 35.8 28.0 1016.3 12.9 S 24.1 0.0
14:00 35.8 28.0 1016.2 4.8 S 24.1 0.0
14:05 35.7 28.0 1016.2 6.4 SW 24.1 0.0
14:10 35.7 28.0 1016.2 20.9 S 25.7 0.0
14:15 35.9 28.0 1016.1 6.4 WSW 25.7 0.0
14:20 36.2 28.0 1016.0 16.1 SW 25.7 0.0
14:25 35.9 27.0 1016.0 17.7 S 27.4 0.0
14:30 35.7 28.0 1016.1 16.1 S 27.4 0.0
14:35 35.6 28.0 1016.0 19.3 SSE 22.5 0.0
14:40 35.5 28.0 1015.9 9.7 S 20.9 0.0
14:45 35.1 28.0 1016.0 17.7 S 25.7 0.0
14:50 34.9 28.0 1016.0 14.5 S 30.6 0.0
14:55 35.2 28.0 1016.0 6.4 SW 30.6 0.0
15:00 34.9 29.0 1015.9 17.7 S 22.5 0.0
15:05 34.8 29.0 1016.0 16.1 SSE 20.9 0.0
15:10 34.8 30.0 1015.8 6.4 WSW 20.9 0.0
15:15 34.9 29.0 1015.9 11.3 S 25.7 0.0
15:20 34.7 30.0 1016.0 9.7 S 25.7 0.0
15:25 34.7 30.0 1016.1 8.0 WSW 20.9 0.0
15:30 34.7 29.0 1016.1 11.3 S 22.5 0.0
Màxima 37.0 69.0 1017.5 20.9 S 30.6 0.0
Mínima 18.2 26.0 1015.8
Total 0.0